Retour au catalogue

FENGYUN 1C DEB

ActifSSO
NORAD 33612·DEBRIS·🇨🇳 China

Lancé May 10, 1999 depuis Taiyuan Satellite Launch Center

Loading…

Prochains Passages (prochaines 24 heures)

TLE

PériméSource: Space-Track

Époque: Aug 31, 2026, 02:42 UTC

1 33612U 99025DCV 26243.11293907  .00001660  00000-0  99494-3 0  9990
2 33612  98.6111 203.9568 0111407  91.6923 269.7009 14.05219232603438

Suivez FENGYUN 1C DEB en temps réel avec AllMySat

Download on the App Store